Back to catalog

STARLINK-34775

AliveCommunicationsSSO
NORAD 64934·PAYLOAD·🇺🇸 United States

Launched Jul 26, 2025 from Vandenberg Space Force Base

Loading…

Next Passes (next 24 hours)

TLE

FreshSource: CelesTrak SupGP

Epoch: Sep 14, 2026, 15:15 UTC

1 64934C 25158C   26257.63590278 -.00005598  00000+0 -17382-3 0  2578
2 64934  97.2832 116.0411 0000928 126.7934  48.5046 15.33435501    12

Track STARLINK-34775 in real time with AllMySat

Download on the App Store